Location: Long Island Community Building
(39.9491°N, 99.5338°W)
Time: 07:07:35
(UTC+00:00)

Timation 1 Rocket - Pass Details

Date: 06 December 2019
Orbit: 897 x 910 km, 70.0° (Epoch: 18 January)

Event Time Altitude Azimuth Distance (km) Brightness Sun altitude
Rises 12:49:43 0° 207° (SSW) 3,498 7.3 -10.5°
Reaches altitude 10° 12:52:12 10° 209° (SSW) 2,562 6.6 -10.0°
Maximum altitude 12:58:07 76° 295° (WNW) 926 4.3 -9.0°
Drops below altitude 10° 13:04:06 10° 22° (NNE) 2,582 6.7 -7.9°
Sets 13:06:37 0° 24° (NNE) 3,528 7.4 -7.5°
